User: anonymous   Login
Location: Unspecified
(0.0000°N, 0.0000°E)
Time: 05:08:21
(UTC+00:00)
Language:

Transit VBN-1 - Orbit

View from above orbital plane
View from above orbital plane
View from above satellite
View from above satellite

Ground track
Ground track

The orbit data is extracted from the following two-line orbital elements,

1   670U 63038B   18267.62595005 +.00000036 +00000-0 +46935-4 0  9999
2   670 090.0664 328.4465 0041170 189.1724 325.0799 13.44297096695074
Epoch (UTC): 24 September 2018 15:01:22
Eccentricity: 0.0041170
inclination: 90.0664°
perigee height: 1062 km
apogee height: 1124 km
right ascension of ascending node: 328.4465°
argument of perigee: 189.1724°
revolutions per day: 13.44297096
mean anomaly at epoch: 325.0799°
orbit number at epoch: 69507

The dashed part of the orbit path shows where the satellite is in the earth's shadow,  

DLR